Location: Bieujac
(44.5398°N, 0.1549°W)
Time: 04:48:12
(UTC+00:00)

PAYLOAD A - Pass Details

Date: 17 November 2019
Orbit: 693 x 831 km, 98.3° (Epoch: 14 December)

Event Time Altitude Azimuth Distance (km) Brightness Sun altitude
Rises 04:11:32 0° 14° (NNE) 3,329 7.5 -29.7°
Reaches altitude 10° 04:13:52 10° 16° (NNE) 2,409 6.7 -29.3°
Maximum altitude 04:19:14 77° 103° (ESE) 850 4.2 -28.4°
Enters shadow 04:20:32 53° 175° (S) 1,011 4.5 -28.1°
